Location: Madrid
(40.4000°N, 3.6830°W)
Time: 13:35:30
(UTC+02:00)

ISS - Pass Details

Date: 27 May 2020
Orbit: 417 x 419 km, 51.6° (Epoch: 31 May)

Event Time Altitude Azimuth Distance (km) Brightness Sun altitude
Rises 00:43:46 0° 310° (NW) 2,367 1.1 -24.9°
Reaches altitude 10° 00:45:56 10° 316° (NW) 1,501 -0.1 -25.1°
Enters shadow 00:48:04 32° 340° (NNW) 744 -2.0 -25.3°
